Weather reports worldwide

Advertisment
Muret-Lherm, France (7628): temperature & dewpoint: 16.08.2019 20:00:00 - 22.08.2019 20:00:00 (CEST)Muret-Lherm, France (7628): wind speed & gusts: 16.08.2019 20:00:00 - 22.08.2019 20:00:00 (CEST)Muret-Lherm, France (7628): wind direction: 16.08.2019 20:00:00 - 22.08.2019 20:00:00 (CEST)Muret-Lherm, France (7628): reduced air pressure: 16.08.2019 20:00:00 - 22.08.2019 20:00:00 (CEST)Muret-Lherm, France (7628): visibility: 16.08.2019 20:00:00 - 22.08.2019 20:00:00 (CEST)Muret-Lherm, France (7628): precipitation: 16.08.2019 20:00:00 - 22.08.2019 20:00:00 (CEST)
Date & Time tt [°C] td [°C] ff [km/h] ff [kn] fx [km/h] fx [kn] dd ppp [hPa] vv [km] rr [mm]
22.08.2019 20:00:00 - - - - - - - - - -
22.08.2019 19:00:00 27,4 11,4 5 3 16 9 WNW 1020,6 20 0,0
22.08.2019 18:00:00 27,5 9,8 9 5 21 11 W 1020,9 20 0,0
22.08.2019 17:00:00 27,6 10,3 9 5 22 12 W 1021,0 20 0,0
22.08.2019 16:00:00 27,0 11,1 11 6 21 11 WNW 1021,5 20 0,0
22.08.2019 15:00:00 27,1 10,7 9 5 26 14 WNW 1021,9 20 0,0
22.08.2019 14:00:00 26,2 10,4 11 6 24 13 W 1021,9 18 -
22.08.2019 13:00:00 25,3 12,5 13 7 24 13 NW 1022,1 20 0,0
22.08.2019 12:00:00 24,0 12,9 13 7 21 11 W 1022,6 20 0,0
22.08.2019 11:00:00 22,2 12,7 9 5 21 11 WNW 1022,6 20 0,0
22.08.2019 10:00:00 20,2 13,4 8 4 15 8 W 1022,8 20 0,0
22.08.2019 09:00:00 16,3 13,8 11 6 13 7 S 1022,9 20 0,0
22.08.2019 08:00:00 13,3 11,9 8 4 16 9 S 1022,6 20 -
22.08.2019 07:00:00 12,5 11,2 11 6 15 8 S 1022,2 20 0,2
22.08.2019 06:00:00 12,7 11,3 8 4 15 8 S 1022,0 20 0,0
22.08.2019 05:00:00 13,4 12,0 13 7 15 8 S 1021,8 20 0,0
22.08.2019 04:00:00 13,7 12,3 11 6 15 8 S 1021,8 20 0,0
22.08.2019 03:00:00 14,7 12,9 9 5 15 8 S 1021,8 20 0,0
22.08.2019 02:00:00 15,3 13,3 11 6 15 8 S 1022,2 20 -
22.08.2019 01:00:00 15,5 13,3 9 5 13 7 S 1022,3 20 0,0
22.08.2019 00:00:00 15,7 12,6 8 4 9 5 SSW 1022,3 20 0,0
21.08.2019 23:00:00 16,7 12,0 8 4 9 5 WNW 1022,2 20 -
21.08.2019 22:00:00 18,2 13,5 9 5 11 6 W 1021,7 20 0,0
21.08.2019 21:00:00 20,5 13,0 5 3 8 4 W 1020,9 18 0,0
21.08.2019 20:00:00 22,5 12,1 5 3 13 7 NNW 1020,3 20 -
21.08.2019 19:00:00 25,1 11,3 8 4 18 10 NNW 1020,0 20 0,0
21.08.2019 18:00:00 26,0 12,1 5 3 22 12 NNW 1020,1 20 0,0
21.08.2019 17:00:00 25,9 13,7 8 4 22 12 NNW 1020,2 20 0,0
21.08.2019 16:00:00 25,5 11,6 9 5 18 10 NNW 1020,7 20 0,0
21.08.2019 15:00:00 25,2 12,8 5 3 18 10 NNW 1021,1 20 0,0
21.08.2019 14:00:00 23,7 12,7 4 2 18 10 N 1021,7 20 -
21.08.2019 13:00:00 22,9 13,1 5 3 13 7 ENE 1022,2 20 0,0
21.08.2019 12:00:00 21,2 14,1 5 3 13 7 SSW 1022,9 20 0,0
21.08.2019 11:00:00 19,0 14,9 9 5 15 8 SSW 1023,7 20 -
21.08.2019 10:00:00 17,1 15,1 5 3 9 5 S 1023,6 20 0,0
21.08.2019 09:00:00 15,2 14,6 5 3 11 6 S 1024,0 18 0,0
21.08.2019 08:00:00 12,7 12,1 8 4 9 5 SSW 1024,5 18 -
21.08.2019 07:00:00 11,3 10,4 5 3 8 4 SSW 1024,6 15 0,0
21.08.2019 06:00:00 12,1 11,3 4 2 8 4 S 1024,3 19 0,0
21.08.2019 05:00:00 12,3 11,4 5 3 9 5 SSW 1024,6 15 0,0
21.08.2019 04:00:00 12,2 11,1 2 1 8 4 SSW 1024,9 13 0,0
21.08.2019 03:00:00 13,3 12,4 4 2 5 3 SSW 1025,0 18 0,0
21.08.2019 02:00:00 13,4 12,1 5 3 8 4 SSW 1025,2 20 -
21.08.2019 01:00:00 14,3 13,0 8 4 8 4 SSW 1025,4 20 0,0
21.08.2019 00:00:00 14,6 13,1 0 0 5 3 N 1025,5 20 0,0
20.08.2019 23:00:00 15,2 13,4 4 2 5 3 SW 1025,3 20 -
20.08.2019 22:00:00 16,3 13,6 2 1 4 2 N 1025,1 20 0,0
20.08.2019 21:00:00 19,2 13,1 2 1 5 3 E 1024,4 2,3 0,0
20.08.2019 20:00:00 21,5 13,7 2 1 16 9 N 1024,0 20 -
20.08.2019 19:00:00 22,6 13,1 9 5 16 9 NW 1023,9 20 0,0
20.08.2019 18:00:00 22,5 13,3 9 5 28 15 N 1023,9 20 0,0
20.08.2019 17:00:00 22,2 14,1 5 3 21 11 N 1024,0 20 -
20.08.2019 16:00:00 21,8 15,6 8 4 18 10 N 1023,9 20 0,0
20.08.2019 15:00:00 19,9 14,9 8 4 16 9 NNW 1024,1 20 0,0
20.08.2019 14:00:00 17,5 15,1 8 4 16 9 N 1024,7 20 -
20.08.2019 13:00:00 16,2 14,6 9 5 15 8 W 1024,7 20 0,4
20.08.2019 12:00:00 15,3 14,2 5 3 13 7 SSW 1024,7 20 1,0
20.08.2019 11:00:00 15,2 14,2 5 3 9 5 W 1024,3 16 2,0
20.08.2019 10:00:00 14,8 13,8 2 1 9 5 WSW 1023,7 11 2,0
20.08.2019 09:00:00 14,7 13,6 2 1 4 2 N 1022,7 7 3,0
20.08.2019 08:00:00 14,8 13,8 4 2 5 3 SSW 1023,0 9 -
20.08.2019 07:00:00 14,7 13,6 0 0 9 5 N 1022,2 6 5,0
20.08.2019 06:00:00 15,1 14,0 5 3 13 7 W 1021,5 10 3,0
20.08.2019 05:00:00 15,3 14,0 8 4 11 6 WNW 1021,3 12 3,0
20.08.2019 04:00:00 15,9 14,6 5 3 5 3 W 1021,3 14 1,0
20.08.2019 03:00:00 16,2 14,7 5 3 8 4 WSW 1021,6 16 2,0
20.08.2019 02:00:00 16,5 14,9 5 3 8 4 WNW 1021,1 18 -
20.08.2019 01:00:00 16,9 14,5 5 3 8 4 S 1021,5 19 0,6
20.08.2019 00:00:00 17,8 14,1 4 2 9 5 WNW 1021,3 20 0,0
19.08.2019 23:00:00 17,7 13,4 5 3 9 5 NW 1021,8 20 -
19.08.2019 22:00:00 18,3 12,5 8 4 9 5 N 1020,5 20 0,0
19.08.2019 21:00:00 19,4 11,9 8 4 16 9 N 1020,6 20 0,0
19.08.2019 20:00:00 20,8 11,4 9 5 18 10 N 1020,3 20 -
19.08.2019 19:00:00 21,7 12,3 8 4 16 9 NNW 1019,7 20 0,0
19.08.2019 18:00:00 22,7 11,4 11 6 18 10 NNW 1019,9 20 0,0
19.08.2019 17:00:00 22,3 11,7 11 6 21 11 NNW 1020,0 20 0,0
19.08.2019 16:00:00 23,0 11,1 11 6 21 11 NNW 1020,2 20 0,0
19.08.2019 15:00:00 22,6 11,6 9 5 26 14 N 1020,2 20 0,0
19.08.2019 14:00:00 22,7 11,1 9 5 22 12 N 1020,2 20 -
19.08.2019 13:00:00 20,7 11,1 9 5 21 11 NNW 1020,4 20 0,0
19.08.2019 12:00:00 20,1 12,6 9 5 18 10 NNW 1020,8 20 0,0
19.08.2019 11:00:00 18,8 13,2 8 4 16 9 N 1020,9 20 0,0
19.08.2019 10:00:00 17,5 14,2 11 6 18 10 NNW 1020,8 20 0,0
19.08.2019 09:00:00 16,8 15,1 9 5 15 8 NW 1020,6 20 0,0
19.08.2019 08:00:00 15,7 14,6 5 3 18 10 WNW 1020,8 20 -
19.08.2019 07:00:00 15,4 14,3 15 8 26 14 N 1020,5 2,9 0,8
19.08.2019 06:00:00 16,6 15,5 9 5 16 9 NW 1020,0 5 0,2
19.08.2019 05:00:00 17,0 14,8 11 6 18 10 NW 1019,6 7 0,0
19.08.2019 04:00:00 17,4 14,9 11 6 16 9 NW 1019,5 20 0,0
19.08.2019 03:00:00 17,6 13,9 11 6 29 16 N 1019,0 20 0,0
19.08.2019 02:00:00 18,4 14,9 16 9 28 15 NW 1018,8 20 -
19.08.2019 01:00:00 18,9 16,7 18 10 37 20 WNW 1017,5 7 1,0
19.08.2019 00:00:00 21,8 17,8 16 9 29 16 NW 1016,8 17 0,0
18.08.2019 23:00:00 22,7 18,5 21 11 37 20 WNW 1015,9 20 -
18.08.2019 22:00:00 23,7 18,8 18 10 29 16 WNW 1014,7 20 0,0
18.08.2019 21:00:00 24,6 18,8 21 11 34 18 WNW 1013,5 20 0,0
18.08.2019 20:00:00 26,4 18,8 13 7 26 14 NW 1012,8 20 -
18.08.2019 19:00:00 27,1 18,9 15 8 31 17 NW 1012,2 20 0,0
18.08.2019 18:00:00 29,2 19,2 21 11 31 17 WNW 1011,6 20 0,0
18.08.2019 17:00:00 28,9 18,7 16 9 28 15 WNW 1011,5 20 0,0
18.08.2019 16:00:00 31,2 18,9 15 8 31 17 WNW 1011,4 20 0,0
18.08.2019 15:00:00 30,5 18,9 11 6 21 11 W 1011,5 20 0,0
18.08.2019 14:00:00 30,4 19,7 8 4 22 12 SSE 1011,5 20 -
18.08.2019 13:00:00 30,1 20,4 11 6 26 14 SSE 1011,6 19 0,0
18.08.2019 12:00:00 28,5 20,0 15 8 26 14 SE 1011,3 20 0,0
18.08.2019 11:00:00 27,3 19,9 18 10 29 16 SE 1011,1 20 -
18.08.2019 10:00:00 24,6 19,7 21 11 35 19 SE 1010,3 20 0,0
18.08.2019 09:00:00 23,5 19,4 18 10 29 16 SE 1009,8 20 0,0
18.08.2019 08:00:00 22,5 19,5 11 6 28 15 SE 1009,3 20 -
18.08.2019 07:00:00 21,8 19,4 15 8 28 15 SE 1008,9 20 0,0
18.08.2019 06:00:00 22,0 19,5 13 7 24 13 SE 1008,9 19 0,0
18.08.2019 05:00:00 21,9 19,3 13 7 24 13 SE 1009,6 20 0,0
18.08.2019 04:00:00 21,5 19,1 11 6 21 11 ESE 1010,3 19 0,0
18.08.2019 03:00:00 21,6 19,0 13 7 26 14 ESE 1010,7 19 0,0
18.08.2019 02:00:00 21,8 18,2 11 6 18 10 ESE 1011,3 20 -
18.08.2019 01:00:00 22,5 17,0 8 4 22 12 ESE 1012,1 20 0,0
18.08.2019 00:00:00 24,4 16,6 16 9 24 13 ESE 1011,8 20 0,0
17.08.2019 23:00:00 24,4 16,1 9 5 15 8 ESE 1012,5 20 0,0
17.08.2019 22:00:00 23,3 15,9 4 2 5 3 SE 1012,7 20 0,0
17.08.2019 21:00:00 26,6 15,6 0 0 8 4 N 1012,3 20 0,0
17.08.2019 20:00:00 29,7 15,4 5 3 9 5 N 1012,2 20 -
17.08.2019 19:00:00 31,0 14,6 5 3 15 8 N 1012,4 20 0,0
17.08.2019 18:00:00 31,4 13,2 4 2 18 10 NW 1012,9 20 0,0
17.08.2019 17:00:00 30,9 13,2 8 4 24 13 NE 1013,1 17 0,0
17.08.2019 16:00:00 30,7 13,5 5 3 13 7 SW 1013,6 20 0,0
17.08.2019 15:00:00 30,0 13,7 5 3 16 9 ESE 1014,3 16 0,0
17.08.2019 14:00:00 28,6 13,3 9 5 18 10 ENE 1014,9 16 -
17.08.2019 13:00:00 27,2 12,8 5 3 22 12 NNW 1015,4 20 0,0
17.08.2019 12:00:00 25,8 12,3 8 4 16 9 NNE 1015,9 20 0,0
17.08.2019 11:00:00 24,8 11,4 8 4 11 6 NNE 1016,0 20 0,0
17.08.2019 10:00:00 22,0 14,9 4 2 8 4 NNW 1016,2 20 0,0
17.08.2019 09:00:00 18,9 15,0 4 2 8 4 SW 1016,5 20 0,0
17.08.2019 08:00:00 15,7 14,1 8 4 13 7 SSW 1016,9 20 -
17.08.2019 07:00:00 14,4 12,6 9 5 13 7 S 1017,3 20 0,0
17.08.2019 06:00:00 14,7 12,6 9 5 11 6 S 1017,6 20 0,0
17.08.2019 05:00:00 15,1 12,8 5 3 8 4 SW 1017,6 20 0,0
17.08.2019 04:00:00 14,8 12,7 4 2 11 6 S 1017,4 20 0,0
17.08.2019 03:00:00 15,1 12,8 8 4 9 5 S 1017,0 20 0,0
17.08.2019 02:00:00 15,5 13,0 5 3 9 5 S 1016,9 20 -
17.08.2019 01:00:00 16,2 13,5 5 3 8 4 SW 1016,8 20 0,0
17.08.2019 00:00:00 16,6 12,5 0 0 8 4 N 1016,4 20 0,0
16.08.2019 23:00:00 18,3 13,6 2 1 5 3 WSW 1016,3 20 0,0
16.08.2019 22:00:00 20,2 13,9 2 1 4 2 SW 1015,9 20 0,0
16.08.2019 21:00:00 24,4 13,6 0 0 5 3 N 1015,3 20 0,0
16.08.2019 20:00:00 28,8 13,1 4 2 8 4 NW 1015,1 20 -

tt = temperature
td = dewpoint
ff = wind speed
fx = gusts
dd = wind direction
ppp = reduced air pressure
vv = visibility
rr = precipitation

Next stations